Location: Unspecified
(0.0000°N, 0.0000°E)
Time: 18:56:59
(UTC+00:00)

Vanguard 2 Rocket - Pass Details

Date: 24 November 2019
Orbit: 554 x 3326 km, 32.9° (Epoch: 09 December)

Event Time Altitude Azimuth Distance (km) Brightness Sun altitude
Rises 15:52:36 0° 224° (SW) 7,188 12.5 26.5°
Reaches altitude 10° 15:59:10 10° 212° (SSW) 5,899 12.0 25.0°
Maximum altitude 16:12:30 27° 162° (SSE) 3,741 10.2 22.0°
Drops below altitude 10° 16:21:38 10° 109° (ESE) 4,016 9.8 19.8°
Sets 16:24:59 0° 96° (E) 4,616 10.0 19.1°
